When you browse on this site, cookies collect data to enhance your experience and personalize the content and advertising you see.
Visit our Privacy Policy to learn more. By continuing to use the site, you agree to this use of cookies and data.
  • In Lithuania
  • List of Countries
  • For 7 days
  • Water Temperature
  • Weather Map
  • Weather Widgets
  • user-avatar
    Login

    Hourly Weather Naftalan

    Today, 15 September, Sunday

    Time Temperature Precipitation Wind Pressure Humidity
    00:00 +22°C° 0 mm 4 mps 767 mmHg 67%
    01:00 +21°C° 0 mm 3 mps 766 mmHg 68%
    02:00 +21°C° 0 mm 3 mps 766 mmHg 69%
    03:00 +21°C° 0 mm 3 mps 766 mmHg 70%
    04:00 +21°C° 0 mm 3 mps 766 mmHg 70%
    05:00 +21°C° 0 mm 3 mps 766 mmHg 70%
    06:00 +21°C° 0 mm 3 mps 766 mmHg 70%
    07:00 +23°C° 0 mm 4 mps 766 mmHg 66%
    08:00 +25°C° 0 mm 4 mps 766 mmHg 61%
    09:00 +27°C° 0 mm 5 mps 766 mmHg 56%
    10:00 +27°C° 0 mm 5 mps 766 mmHg 54%
    11:00 +27°C° 0 mm 5 mps 766 mmHg 53%
    12:00 +28°C° 0 mm 5 mps 766 mmHg 51%
    13:00 +28°C° 0 mm 5 mps 765 mmHg 52%
    14:00 +28°C° 0 mm 5 mps 765 mmHg 53%
    15:00 +27°C° 0 mm 5 mps 765 mmHg 54%
    16:00 +27°C° 0 mm 5 mps 765 mmHg 59%
    17:00 +26°C° 0 mm 5 mps 765 mmHg 63%
    18:00 +25°C° 0 mm 5 mps 765 mmHg 68%
    19:00 +25°C° 0 mm 4 mps 765 mmHg 69%
    20:00 +23°C° 0 mm 4 mps 766 mmHg 69%
    21:00 +23°C° 0 mm 4 mps 766 mmHg 70%
    22:00 +24°C° 0 mm 3 mps 766 mmHg 71%
    23:00 +24°C° 0 mm 3 mps 766 mmHg 72%

    Tomorrow, 16 September, Monday

    Time Temperature Precipitation Wind Pressure Humidity
    00:00 +24°C° 0 mm 2 mps 766 mmHg 72%
    01:00 +23°C° 0.1 mm 2 mps 766 mmHg 75%
    02:00 +23°C° 0.1 mm 1 mps 766 mmHg 78%
    03:00 +22°C° 0.1 mm 1 mps 766 mmHg 80%
    04:00 +22°C° 0.1 mm 1 mps 767 mmHg 80%
    05:00 +23°C° 0.1 mm 1 mps 767 mmHg 79%
    06:00 +23°C° 0.1 mm 1 mps 767 mmHg 79%
    07:00 +24°C° 0 mm 2 mps 767 mmHg 73%
    08:00 +25°C° 0 mm 3 mps 767 mmHg 67%
    09:00 +27°C° 0 mm 5 mps 766 mmHg 62%
    10:00 +27°C° 0 mm 5 mps 766 mmHg 59%
    11:00 +28°C° 0 mm 5 mps 765 mmHg 56%
    12:00 +28°C° 0 mm 6 mps 764 mmHg 54%
    13:00 +28°C° 0 mm 6 mps 764 mmHg 53%
    14:00 +28°C° 0 mm 5 mps 763 mmHg 53%
    15:00 +28°C° 0 mm 5 mps 763 mmHg 52%
    16:00 +27°C° 0 mm 5 mps 762 mmHg 55%
    17:00 +26°C° 0 mm 4 mps 762 mmHg 57%
    18:00 +25°C° 0 mm 4 mps 762 mmHg 60%
    19:00 +25°C° 0 mm 3 mps 762 mmHg 63%
    20:00 +24°C° 0 mm 3 mps 762 mmHg 66%
    21:00 +24°C° 0 mm 2 mps 762 mmHg 69%
    22:00 +24°C° 0 mm 2 mps 762 mmHg 71%
    23:00 +23°C° 0 mm 2 mps 761 mmHg 73%

    Day after tomorrow, 17 September, Tuesday

    Time Temperature Precipitation Wind Pressure Humidity
    00:00 +23°C° 0 mm 1 mps 761 mmHg 75%
    01:00 +22°C° 0 mm 1 mps 761 mmHg 77%
    02:00 +22°C° 0 mm 1 mps 761 mmHg 79%
    03:00 +22°C° 0 mm 1 mps 760 mmHg 81%
    04:00 +22°C° 0 mm 1 mps 760 mmHg 82%
    05:00 +21°C° 0 mm 2 mps 760 mmHg 82%
    06:00 +21°C° 0 mm 2 mps 760 mmHg 83%
    07:00 +24°C° 0 mm 1 mps 760 mmHg 74%
    08:00 +26°C° 0 mm 1 mps 760 mmHg 64%
    09:00 +28°C° 0 mm 1 mps 760 mmHg 55%
    10:00 +29°C° 0 mm 1 mps 759 mmHg 52%
    11:00 +30°C° 0 mm 2 mps 759 mmHg 50%
    12:00 +31°C° 0 mm 2 mps 758 mmHg 47%
    13:00 +31°C° 0 mm 3 mps 758 mmHg 49%
    14:00 +30°C° 0 mm 4 mps 757 mmHg 50%
    15:00 +30°C° 0 mm 5 mps 757 mmHg 52%
    16:00 +29°C° 0 mm 5 mps 757 mmHg 58%
    17:00 +28°C° 0 mm 4 mps 757 mmHg 64%
    18:00 +26°C° 0 mm 4 mps 757 mmHg 70%
    19:00 +26°C° 0 mm 4 mps 757 mmHg 72%
    20:00 +25°C° 0 mm 4 mps 757 mmHg 74%
    21:00 +25°C° 0 mm 4 mps 758 mmHg 77%
    22:00 +25°C° 0 mm 3 mps 758 mmHg 76%
    23:00 +24°C° 0 mm 3 mps 759 mmHg 75%

    18 September, Wednesday

    Time Temperature Precipitation Wind Pressure Humidity
    00:00 +24°C° 0 mm 2 mps 759 mmHg 74%
    01:00 +24°C° 0 mm 2 mps 759 mmHg 74%
    02:00 +24°C° 0 mm 3 mps 760 mmHg 73%
    03:00 +24°C° 0 mm 3 mps 760 mmHg 73%
    04:00 +24°C° 0 mm 2 mps 761 mmHg 70%
    05:00 +24°C° 0 mm 2 mps 761 mmHg 68%
    06:00 +23°C° 0 mm 2 mps 762 mmHg 66%
    07:00 +25°C° 0 mm 2 mps 762 mmHg 59%
    08:00 +27°C° 0 mm 2 mps 763 mmHg 53%
    09:00 +29°C° 0 mm 3 mps 764 mmHg 46%
    10:00 +30°C° 0 mm 3 mps 763 mmHg 45%
    11:00 +31°C° 0 mm 3 mps 763 mmHg 44%
    12:00 +32°C° 0 mm 4 mps 763 mmHg 43%
    13:00 +32°C° 0 mm 4 mps 763 mmHg 46%
    14:00 +30°C° 0 mm 5 mps 762 mmHg 49%
    15:00 +30°C° 0 mm 6 mps 762 mmHg 52%
    16:00 +28°C° 0 mm 6 mps 762 mmHg 57%
    17:00 +27°C° 0 mm 6 mps 763 mmHg 63%
    18:00 +26°C° 0 mm 6 mps 763 mmHg 69%
    19:00 +26°C° 0 mm 6 mps 763 mmHg 71%
    20:00 +26°C° 0 mm 6 mps 763 mmHg 73%
    21:00 +24°C° 0 mm 7 mps 764 mmHg 75%
    22:00 +24°C° 0 mm 6 mps 763 mmHg 75%
    23:00 +25°C° 0 mm 5 mps 763 mmHg 76%

    19 September, Thursday

    Time Temperature Precipitation Wind Pressure Humidity
    00:00 +25°C° 0 mm 5 mps 763 mmHg 77%
    01:00 +23°C° 0 mm 4 mps 763 mmHg 78%
    02:00 +23°C° 0 mm 4 mps 762 mmHg 79%
    03:00 +23°C° 0 mm 4 mps 762 mmHg 80%
    04:00 +23°C° 0 mm 4 mps 762 mmHg 80%
    05:00 +24°C° 0 mm 3 mps 762 mmHg 80%
    06:00 +24°C° 0 mm 3 mps 763 mmHg 80%
    07:00 +25°C° 0 mm 3 mps 763 mmHg 72%
    08:00 +27°C° 0 mm 3 mps 763 mmHg 64%
    09:00 +28°C° 0 mm 3 mps 763 mmHg 56%
    10:00 +29°C° 0 mm 3 mps 763 mmHg 53%
    11:00 +30°C° 0 mm 3 mps 762 mmHg 51%
    12:00 +31°C° 0 mm 3 mps 762 mmHg 48%
    13:00 +32°C° 0 mm 4 mps 762 mmHg 49%
    14:00 +30°C° 0 mm 5 mps 762 mmHg 50%
    15:00 +30°C° 0 mm 5 mps 761 mmHg 51%
    16:00 +29°C° 0 mm 5 mps 762 mmHg 57%
    17:00 +27°C° 0 mm 5 mps 762 mmHg 63%
    18:00 +26°C° 0 mm 4 mps 762 mmHg 68%
    19:00 +26°C° 0 mm 4 mps 763 mmHg 70%
    20:00 +25°C° 0 mm 4 mps 763 mmHg 73%
    21:00 +25°C° 0 mm 4 mps 763 mmHg 75%
    22:00 +25°C° 0 mm 4 mps 763 mmHg 76%
    23:00 +23°C° 0 mm 4 mps 763 mmHg 76%

    20 September, Friday

    Time Temperature Precipitation Wind Pressure Humidity
    00:00 +23°C° 0 mm 5 mps 763 mmHg 77%
    01:00 +23°C° 0 mm 5 mps 763 mmHg 77%
    02:00 +23°C° 0 mm 5 mps 763 mmHg 77%
    03:00 +22°C° 0 mm 4 mps 763 mmHg 77%
    04:00 +22°C° 0 mm 4 mps 763 mmHg 77%
    05:00 +22°C° 0 mm 4 mps 762 mmHg 77%
    06:00 +22°C° 0 mm 4 mps 762 mmHg 77%
    07:00 +24°C° 0 mm 3 mps 762 mmHg 71%
    08:00 +26°C° 0 mm 3 mps 762 mmHg 65%
    09:00 +27°C° 0 mm 3 mps 762 mmHg 59%
    10:00 +27°C° 0 mm 3 mps 762 mmHg 57%
    11:00 +28°C° 0 mm 3 mps 761 mmHg 55%
    12:00 +29°C° 0 mm 3 mps 761 mmHg 53%
    13:00 +28°C° 0 mm 3 mps 760 mmHg 54%
    14:00 +28°C° 0 mm 4 mps 760 mmHg 54%
    15:00 +28°C° 0 mm 4 mps 759 mmHg 55%
    16:00 +27°C° 0 mm 4 mps 759 mmHg 61%
    17:00 +26°C° 0 mm 4 mps 759 mmHg 66%
    18:00 +25°C° 0 mm 4 mps 759 mmHg 72%
    19:00 +24°C° 0 mm 3 mps 759 mmHg 75%
    20:00 +24°C° 0 mm 3 mps 759 mmHg 78%
    21:00 +24°C° 0 mm 3 mps 759 mmHg 81%
    22:00 +24°C° 0 mm 3 mps 758 mmHg 81%
    23:00 +22°C° 0 mm 3 mps 758 mmHg 82%
    Show more